Year,Month,Day,Hour,Minute,Value (Times are PST for temperature in C)
2013,05,22,00,00,7.10
2013,05,22,00,01,7.10
2013,05,22,00,02,7.10
2013,05,22,00,03,7.10
2013,05,22,00,04,7.10
2013,05,22,00,05,7.10
2013,05,22,00,06,7.10
2013,05,22,00,07,7.00
2013,05,22,00,08,7.00
2013,05,22,00,09,7.00
2013,05,22,00,10,7.00
2013,05,22,00,11,7.00
2013,05,22,00,12,7.00
2013,05,22,00,13,7.00
2013,05,22,00,14,7.00
2013,05,22,00,15,7.00
2013,05,22,00,16,7.10
2013,05,22,00,17,7.10
2013,05,22,00,18,7.10
2013,05,22,00,19,7.10
2013,05,22,00,20,7.20
2013,05,22,00,21,7.20
2013,05,22,00,22,7.20
2013,05,22,00,23,7.20
2013,05,22,00,24,7.20
2013,05,22,00,25,7.20
2013,05,22,00,26,7.20
2013,05,22,00,27,7.20
2013,05,22,00,28,7.20
2013,05,22,00,29,7.20
2013,05,22,00,30,7.20
2013,05,22,00,31,7.20
2013,05,22,00,32,7.20
2013,05,22,00,33,7.20
2013,05,22,00,34,7.20
2013,05,22,00,35,7.20
2013,05,22,00,36,7.30
2013,05,22,00,37,7.30
2013,05,22,00,38,7.30
2013,05,22,00,39,7.30
2013,05,22,00,40,7.30
2013,05,22,00,41,7.30
2013,05,22,00,42,7.30
2013,05,22,00,43,7.30
2013,05,22,00,44,7.30
2013,05,22,00,45,7.30
2013,05,22,00,46,7.30
2013,05,22,00,47,7.30
2013,05,22,00,48,7.30
2013,05,22,00,49,7.30
2013,05,22,00,50,7.30
2013,05,22,00,51,7.30
2013,05,22,00,52,7.30
2013,05,22,00,53,7.30
2013,05,22,00,54,7.20
2013,05,22,00,55,7.20
2013,05,22,00,56,7.20
2013,05,22,00,57,7.20
2013,05,22,00,58,7.20
2013,05,22,00,59,7.10
2013,05,22,01,00,7.10
2013,05,22,01,01,7.00
2013,05,22,01,02,7.00
2013,05,22,01,03,6.90
2013,05,22,01,04,6.90
2013,05,22,01,05,6.90
2013,05,22,01,06,6.80
2013,05,22,01,07,6.80
2013,05,22,01,08,6.80
2013,05,22,01,09,6.80
2013,05,22,01,10,6.80
2013,05,22,01,11,6.80
2013,05,22,01,12,6.80
2013,05,22,01,13,6.80
2013,05,22,01,14,6.70
2013,05,22,01,15,6.70
2013,05,22,01,16,6.70
2013,05,22,01,17,6.70
2013,05,22,01,18,6.70
2013,05,22,01,19,6.70
2013,05,22,01,20,6.60
2013,05,22,01,21,6.60
2013,05,22,01,22,6.60
2013,05,22,01,23,6.60
2013,05,22,01,24,6.60
2013,05,22,01,25,6.60
2013,05,22,01,26,6.60
2013,05,22,01,27,6.60
2013,05,22,01,28,6.60
2013,05,22,01,29,6.60
2013,05,22,01,30,6.60
2013,05,22,01,31,6.50
2013,05,22,01,32,6.50
2013,05,22,01,33,6.50
2013,05,22,01,34,6.40
2013,05,22,01,35,6.40
2013,05,22,01,36,6.30
2013,05,22,01,37,6.30
2013,05,22,01,38,6.30
2013,05,22,01,39,6.30
2013,05,22,01,40,6.30
2013,05,22,01,41,6.30
2013,05,22,01,42,6.30
2013,05,22,01,43,6.30
2013,05,22,01,44,6.30
2013,05,22,01,45,6.30
2013,05,22,01,46,6.40
2013,05,22,01,47,6.50
2013,05,22,01,48,6.50
2013,05,22,01,49,6.60
2013,05,22,01,50,6.60
2013,05,22,01,51,6.60
2013,05,22,01,52,6.50
2013,05,22,01,53,6.40
2013,05,22,01,54,6.40
2013,05,22,01,55,6.30
2013,05,22,01,56,6.20
2013,05,22,01,57,6.20
2013,05,22,01,58,6.10
2013,05,22,01,59,6.00
2013,05,22,02,00,6.00
2013,05,22,02,01,6.00
2013,05,22,02,02,6.00
2013,05,22,02,03,6.00
2013,05,22,02,04,6.00
2013,05,22,02,05,6.00
2013,05,22,02,06,5.90
2013,05,22,02,07,5.90
2013,05,22,02,08,5.90
2013,05,22,02,09,5.90
2013,05,22,02,10,6.00
2013,05,22,02,11,6.00
2013,05,22,02,12,6.00
2013,05,22,02,13,6.00
2013,05,22,02,14,5.90
2013,05,22,02,15,5.90
2013,05,22,02,16,5.90
2013,05,22,02,17,5.80
2013,05,22,02,18,5.80
2013,05,22,02,19,5.80
2013,05,22,02,20,5.80
2013,05,22,02,21,5.80
2013,05,22,02,22,5.80
2013,05,22,02,23,5.80
2013,05,22,02,24,5.80
2013,05,22,02,25,5.80
2013,05,22,02,26,5.80
2013,05,22,02,27,5.80
2013,05,22,02,28,5.80
2013,05,22,02,29,5.80
2013,05,22,02,30,5.80
2013,05,22,02,31,5.80
2013,05,22,02,32,5.80
2013,05,22,02,33,5.80
2013,05,22,02,34,5.90
2013,05,22,02,35,5.90
2013,05,22,02,36,5.80
2013,05,22,02,37,5.80
2013,05,22,02,38,5.80
2013,05,22,02,39,5.80
2013,05,22,02,40,5.80
2013,05,22,02,41,5.80
2013,05,22,02,42,5.80
2013,05,22,02,43,5.80
2013,05,22,02,44,5.80
2013,05,22,02,45,5.70
2013,05,22,02,46,5.70
2013,05,22,02,47,5.70
2013,05,22,02,48,5.70
2013,05,22,02,49,5.70
2013,05,22,02,50,5.70
2013,05,22,02,51,5.70
2013,05,22,02,52,5.70
2013,05,22,02,53,5.70
2013,05,22,02,54,5.60
2013,05,22,02,55,5.60
2013,05,22,02,56,5.60
2013,05,22,02,57,5.60
2013,05,22,02,58,5.50
2013,05,22,02,59,5.50
2013,05,22,03,00,5.50
2013,05,22,03,01,5.40
2013,05,22,03,02,5.40
2013,05,22,03,03,5.40
2013,05,22,03,04,5.40
2013,05,22,03,05,5.40
2013,05,22,03,06,5.40
2013,05,22,03,07,5.40
2013,05,22,03,08,5.40
2013,05,22,03,09,5.30
2013,05,22,03,10,5.30
2013,05,22,03,11,5.30
2013,05,22,03,12,5.40
2013,05,22,03,13,5.40
2013,05,22,03,14,5.40
2013,05,22,03,15,5.40
2013,05,22,03,16,5.50
2013,05,22,03,17,5.50
2013,05,22,03,18,5.50
2013,05,22,03,19,5.50
2013,05,22,03,20,5.40
2013,05,22,03,21,5.40
2013,05,22,03,22,5.40
2013,05,22,03,23,5.50
2013,05,22,03,24,5.50
2013,05,22,03,25,5.50
2013,05,22,03,26,5.50
2013,05,22,03,27,5.50
2013,05,22,03,28,5.50
2013,05,22,03,29,5.40
2013,05,22,03,30,5.40
2013,05,22,03,31,5.40
2013,05,22,03,32,5.40
2013,05,22,03,33,5.40
2013,05,22,03,34,5.50
2013,05,22,03,35,5.50
2013,05,22,03,36,5.60
2013,05,22,03,37,5.70
2013,05,22,03,38,5.70
2013,05,22,03,39,5.70
2013,05,22,03,40,5.80
2013,05,22,03,41,5.80
2013,05,22,03,42,5.80
2013,05,22,03,43,5.80
2013,05,22,03,44,5.80
2013,05,22,03,45,5.80
2013,05,22,03,46,5.80
2013,05,22,03,47,5.80
2013,05,22,03,48,5.80
2013,05,22,03,49,5.80
2013,05,22,03,50,5.80
2013,05,22,03,51,5.80
2013,05,22,03,52,5.70
2013,05,22,03,53,5.50
2013,05,22,03,54,5.50
2013,05,22,03,55,5.50
2013,05,22,03,56,5.60
2013,05,22,03,57,5.70
2013,05,22,03,58,5.70
2013,05,22,03,59,5.80
2013,05,22,04,00,5.80
2013,05,22,04,01,5.80
2013,05,22,04,02,5.80
2013,05,22,04,03,5.80
2013,05,22,04,04,5.80
2013,05,22,04,05,5.80
2013,05,22,04,06,5.80
2013,05,22,04,07,5.80
2013,05,22,04,08,5.80
2013,05,22,04,09,5.90
2013,05,22,04,10,5.90
2013,05,22,04,11,5.90
2013,05,22,04,12,5.90
2013,05,22,04,13,5.90
2013,05,22,04,14,5.90
2013,05,22,04,15,5.80
2013,05,22,04,16,5.70
2013,05,22,04,17,5.60
2013,05,22,04,18,5.50
2013,05,22,04,19,5.40
2013,05,22,04,20,5.40
2013,05,22,04,21,5.40
2013,05,22,04,22,5.50
2013,05,22,04,23,5.50
2013,05,22,04,24,5.60
2013,05,22,04,25,5.70
2013,05,22,04,26,5.70
2013,05,22,04,27,5.60
2013,05,22,04,28,5.60
2013,05,22,04,29,5.50
2013,05,22,04,30,5.40
2013,05,22,04,31,5.40
2013,05,22,04,32,5.30
2013,05,22,04,33,5.30
2013,05,22,04,34,5.20
2013,05,22,04,35,5.20
2013,05,22,04,36,5.20
2013,05,22,04,37,5.20
2013,05,22,04,38,5.20
2013,05,22,04,39,5.20
2013,05,22,04,40,5.20
2013,05,22,04,41,5.20
2013,05,22,04,42,5.20
2013,05,22,04,43,5.20
2013,05,22,04,44,5.20
2013,05,22,04,45,5.20
2013,05,22,04,46,5.20
2013,05,22,04,47,5.20
2013,05,22,04,48,5.20
2013,05,22,04,49,5.20
2013,05,22,04,50,5.20
2013,05,22,04,51,5.20
2013,05,22,04,52,5.20
2013,05,22,04,53,5.30
2013,05,22,04,54,5.30
2013,05,22,04,55,5.30
2013,05,22,04,56,5.30
2013,05,22,04,57,5.30
2013,05,22,04,58,5.30
2013,05,22,04,59,5.30
2013,05,22,05,00,5.30
2013,05,22,05,01,5.30
2013,05,22,05,02,5.30
2013,05,22,05,03,5.30
2013,05,22,05,04,5.30
2013,05,22,05,05,5.30
2013,05,22,05,06,5.30
2013,05,22,05,07,5.30
2013,05,22,05,08,5.30
2013,05,22,05,09,5.30
2013,05,22,05,10,5.30
2013,05,22,05,11,5.30
2013,05,22,05,12,5.40
2013,05,22,05,13,5.40
2013,05,22,05,14,5.40
2013,05,22,05,15,5.50
2013,05,22,05,16,5.50
2013,05,22,05,17,5.50
2013,05,22,05,18,5.50
2013,05,22,05,19,5.50
2013,05,22,05,20,5.60
2013,05,22,05,21,5.60
2013,05,22,05,22,5.60
2013,05,22,05,23,5.60
2013,05,22,05,24,5.60
2013,05,22,05,25,5.70
2013,05,22,05,26,5.70
2013,05,22,05,27,5.70
2013,05,22,05,28,5.80
2013,05,22,05,29,5.80
2013,05,22,05,30,5.80
2013,05,22,05,31,5.80
2013,05,22,05,32,5.90
2013,05,22,05,33,5.90
2013,05,22,05,34,5.90
2013,05,22,05,35,5.90
2013,05,22,05,36,5.90
2013,05,22,05,37,5.90
2013,05,22,05,38,5.90
2013,05,22,05,39,5.90
2013,05,22,05,40,6.00
2013,05,22,05,41,6.00
2013,05,22,05,42,6.00
2013,05,22,05,43,6.00
2013,05,22,05,44,6.00
2013,05,22,05,45,6.00
2013,05,22,05,46,6.00
2013,05,22,05,47,6.00
2013,05,22,05,48,6.00
2013,05,22,05,49,6.10
2013,05,22,05,50,6.10
2013,05,22,05,51,6.10
2013,05,22,05,52,6.10
2013,05,22,05,53,6.10
2013,05,22,05,54,6.10
2013,05,22,05,55,6.20
2013,05,22,05,56,6.20
2013,05,22,05,57,6.20
2013,05,22,05,58,6.20
2013,05,22,05,59,6.20
2013,05,22,06,00,6.30
2013,05,22,06,01,6.30
2013,05,22,06,02,6.30
2013,05,22,06,03,6.30
2013,05,22,06,04,6.40
2013,05,22,06,05,6.40
2013,05,22,06,06,6.40
2013,05,22,06,07,6.40
2013,05,22,06,08,6.50
2013,05,22,06,09,6.50
2013,05,22,06,10,6.50
2013,05,22,06,11,6.50
2013,05,22,06,12,6.60
2013,05,22,06,13,6.60
2013,05,22,06,14,6.60
2013,05,22,06,15,6.60
2013,05,22,06,16,6.70
2013,05,22,06,17,6.70
2013,05,22,06,18,6.70
2013,05,22,06,19,6.70
2013,05,22,06,20,6.70
2013,05,22,06,21,6.70
2013,05,22,06,22,6.70
2013,05,22,06,23,6.70
2013,05,22,06,24,6.70
2013,05,22,06,25,6.70
2013,05,22,06,26,6.80
2013,05,22,06,27,6.80
2013,05,22,06,28,6.80
2013,05,22,06,29,6.80
2013,05,22,06,30,6.80
2013,05,22,06,31,6.80
2013,05,22,06,32,6.80
2013,05,22,06,33,6.80
2013,05,22,06,34,6.80
2013,05,22,06,35,6.80
2013,05,22,06,36,6.80
2013,05,22,06,37,6.90
2013,05,22,06,38,6.90
2013,05,22,06,39,6.90
2013,05,22,06,40,6.90
2013,05,22,06,41,6.80
2013,05,22,06,42,6.80
2013,05,22,06,43,6.80
2013,05,22,06,44,6.80
2013,05,22,06,45,6.80
2013,05,22,06,46,6.80
2013,05,22,06,47,6.80
2013,05,22,06,48,6.80
2013,05,22,06,49,6.80
2013,05,22,06,50,6.80
2013,05,22,06,51,6.80
2013,05,22,06,52,6.80
2013,05,22,06,53,6.80
2013,05,22,06,54,6.80
2013,05,22,06,55,6.80
2013,05,22,06,56,6.80
2013,05,22,06,57,6.80
2013,05,22,06,58,6.80
2013,05,22,06,59,6.80
2013,05,22,07,00,6.80
2013,05,22,07,01,6.80
2013,05,22,07,02,6.80
2013,05,22,07,03,6.80
2013,05,22,07,04,6.80
2013,05,22,07,05,6.80
2013,05,22,07,06,6.80
2013,05,22,07,07,6.80
2013,05,22,07,08,6.80
2013,05,22,07,09,6.80
2013,05,22,07,10,6.80
2013,05,22,07,11,6.80
2013,05,22,07,12,6.80
2013,05,22,07,13,6.80
2013,05,22,07,14,6.90
2013,05,22,07,15,6.90
2013,05,22,07,16,6.90
2013,05,22,07,17,7.00
2013,05,22,07,18,7.10
2013,05,22,07,19,7.10
2013,05,22,07,20,7.20
2013,05,22,07,21,7.20
2013,05,22,07,22,7.20
2013,05,22,07,23,7.30
2013,05,22,07,24,7.30
2013,05,22,07,25,7.30
2013,05,22,07,26,7.30
2013,05,22,07,27,7.30
2013,05,22,07,28,7.30
2013,05,22,07,29,7.30
2013,05,22,07,30,7.30
2013,05,22,07,31,7.30
2013,05,22,07,32,7.30
2013,05,22,07,33,7.30
2013,05,22,07,34,7.30
2013,05,22,07,35,7.30
2013,05,22,07,36,7.30
2013,05,22,07,37,7.30
2013,05,22,07,38,7.30
2013,05,22,07,39,7.30
2013,05,22,07,40,7.30
2013,05,22,07,41,7.30
2013,05,22,07,42,7.30
2013,05,22,07,43,7.30
2013,05,22,07,44,7.30
2013,05,22,07,45,7.30
2013,05,22,07,46,7.40
2013,05,22,07,47,7.40
2013,05,22,07,48,7.40
2013,05,22,07,49,7.40
2013,05,22,07,50,7.50
2013,05,22,07,51,7.60
2013,05,22,07,52,7.60
2013,05,22,07,53,7.70
2013,05,22,07,54,7.70
2013,05,22,07,55,7.70
2013,05,22,07,56,7.70
2013,05,22,07,57,7.80
2013,05,22,07,58,7.80
2013,05,22,07,59,7.80
2013,05,22,08,00,7.80
2013,05,22,08,01,7.80
2013,05,22,08,02,7.80
2013,05,22,08,03,7.80
2013,05,22,08,04,7.80
2013,05,22,08,05,7.90
2013,05,22,08,06,7.90
2013,05,22,08,07,8.00
2013,05,22,08,08,8.10
2013,05,22,08,09,8.10
2013,05,22,08,10,8.10
2013,05,22,08,11,8.20
2013,05,22,08,12,8.20
2013,05,22,08,13,8.20
2013,05,22,08,14,8.30
2013,05,22,08,15,8.30
2013,05,22,08,16,8.30
2013,05,22,08,17,8.30
2013,05,22,08,18,8.40
2013,05,22,08,19,8.40
2013,05,22,08,20,8.50
2013,05,22,08,21,8.50
2013,05,22,08,22,8.60
2013,05,22,08,23,8.60
2013,05,22,08,24,8.70
2013,05,22,08,25,8.70
2013,05,22,08,26,8.80
2013,05,22,08,27,8.80
2013,05,22,08,28,8.90
2013,05,22,08,29,8.90
2013,05,22,08,30,9.00
2013,05,22,08,31,9.00
2013,05,22,08,32,9.10
2013,05,22,08,33,9.10
2013,05,22,08,34,9.20
2013,05,22,08,35,9.20
2013,05,22,08,36,9.20
2013,05,22,08,37,9.30
2013,05,22,08,38,9.30
2013,05,22,08,39,9.30
2013,05,22,08,40,9.30
2013,05,22,08,41,9.40
2013,05,22,08,42,9.40
2013,05,22,08,43,9.50
2013,05,22,08,44,9.60
2013,05,22,08,45,9.60
2013,05,22,08,46,9.70
2013,05,22,08,47,9.70
2013,05,22,08,48,9.80
2013,05,22,08,49,9.90
2013,05,22,08,50,9.90
2013,05,22,08,51,9.90
2013,05,22,08,52,10.00
2013,05,22,08,53,10.10
2013,05,22,08,54,10.10
2013,05,22,08,55,10.20
2013,05,22,08,56,10.20
2013,05,22,08,57,10.20
2013,05,22,08,58,10.30
2013,05,22,08,59,10.30
2013,05,22,09,00,10.30
2013,05,22,09,01,10.30
2013,05,22,09,02,10.40
2013,05,22,09,03,10.50
2013,05,22,09,04,10.50
2013,05,22,09,05,10.60
2013,05,22,09,06,10.70
2013,05,22,09,07,10.70
2013,05,22,09,08,10.70
2013,05,22,09,09,10.70
2013,05,22,09,10,10.70
2013,05,22,09,11,10.70
2013,05,22,09,12,10.70
2013,05,22,09,13,10.70
2013,05,22,09,14,10.60
2013,05,22,09,15,10.60
2013,05,22,09,16,10.60
2013,05,22,09,17,10.70
2013,05,22,09,18,10.70
2013,05,22,09,19,10.70
2013,05,22,09,20,10.80
2013,05,22,09,21,10.80
2013,05,22,09,22,10.90
2013,05,22,09,23,11.00
2013,05,22,09,24,11.10
2013,05,22,09,25,11.20
2013,05,22,09,26,11.30
2013,05,22,09,27,11.40
2013,05,22,09,28,11.50
2013,05,22,09,29,11.60
2013,05,22,09,30,11.60
2013,05,22,09,31,11.70
2013,05,22,09,32,11.70
2013,05,22,09,33,11.80
2013,05,22,09,34,11.80
2013,05,22,09,35,11.80
2013,05,22,09,36,11.90
2013,05,22,09,37,11.90
2013,05,22,09,38,11.90
2013,05,22,09,39,11.90
2013,05,22,09,40,11.90
2013,05,22,09,41,12.00
2013,05,22,09,42,12.00
2013,05,22,09,43,12.10
2013,05,22,09,44,12.10
2013,05,22,09,45,12.00
2013,05,22,09,46,12.10
2013,05,22,09,47,12.10
2013,05,22,09,48,12.10
2013,05,22,09,49,12.10
2013,05,22,09,50,12.20
2013,05,22,09,51,12.20
2013,05,22,09,52,12.20
2013,05,22,09,53,12.20
2013,05,22,09,54,12.10
2013,05,22,09,55,12.10
2013,05,22,09,56,12.10
2013,05,22,09,57,12.00
2013,05,22,09,58,12.00
2013,05,22,09,59,12.00
2013,05,22,10,00,11.90
2013,05,22,10,01,11.90
2013,05,22,10,02,11.90
2013,05,22,10,03,11.90
2013,05,22,10,04,11.90
2013,05,22,10,05,11.90
2013,05,22,10,06,11.80
2013,05,22,10,07,11.80
2013,05,22,10,08,11.80
2013,05,22,10,09,11.80
2013,05,22,10,10,11.80
2013,05,22,10,11,11.80
2013,05,22,10,12,11.90
2013,05,22,10,13,11.90
2013,05,22,10,14,11.90
2013,05,22,10,15,11.90
2013,05,22,10,16,11.90
2013,05,22,10,17,11.90
2013,05,22,10,18,11.90
2013,05,22,10,19,11.90
2013,05,22,10,20,11.90
2013,05,22,10,21,11.90
2013,05,22,10,22,12.00
2013,05,22,10,23,12.00
2013,05,22,10,24,11.90
2013,05,22,10,25,12.00
2013,05,22,10,26,12.00
2013,05,22,10,27,12.00
2013,05,22,10,28,12.00
2013,05,22,10,29,12.00
2013,05,22,10,30,12.00
2013,05,22,10,31,12.00
2013,05,22,10,32,12.00
2013,05,22,10,33,12.00
2013,05,22,10,34,12.00
2013,05,22,10,35,12.00
2013,05,22,10,36,12.00
2013,05,22,10,37,12.10
2013,05,22,10,38,12.10
2013,05,22,10,39,12.10
2013,05,22,10,40,12.10
2013,05,22,10,41,12.10
2013,05,22,10,42,12.20
2013,05,22,10,43,12.20
2013,05,22,10,44,12.20
2013,05,22,10,45,12.20
2013,05,22,10,46,12.20
2013,05,22,10,47,12.20
2013,05,22,10,48,12.20
2013,05,22,10,49,12.30
2013,05,22,10,50,12.30
2013,05,22,10,51,12.30
2013,05,22,10,52,12.30
2013,05,22,10,53,12.30
2013,05,22,10,54,12.30
2013,05,22,10,55,12.30
2013,05,22,10,56,12.30
2013,05,22,10,57,12.30
2013,05,22,10,58,12.20
2013,05,22,10,59,12.20
2013,05,22,11,00,12.20
2013,05,22,11,01,12.30
2013,05,22,11,02,12.30
2013,05,22,11,03,12.40
2013,05,22,11,04,12.40
2013,05,22,11,05,12.50
2013,05,22,11,06,12.60
2013,05,22,11,07,12.70
2013,05,22,11,08,12.80
2013,05,22,11,09,12.90
2013,05,22,11,10,13.00
2013,05,22,11,11,13.10
2013,05,22,11,12,13.10
2013,05,22,11,13,13.20
2013,05,22,11,14,13.20
2013,05,22,11,15,13.30
2013,05,22,11,16,13.20
2013,05,22,11,17,13.20
2013,05,22,11,18,13.10
2013,05,22,11,19,13.00
2013,05,22,11,20,12.90
2013,05,22,11,21,12.80
2013,05,22,11,22,12.70
2013,05,22,11,23,12.70
2013,05,22,11,24,12.60
2013,05,22,11,25,12.60
2013,05,22,11,26,12.60
2013,05,22,11,27,12.60
2013,05,22,11,28,12.60
2013,05,22,11,29,12.60
2013,05,22,11,30,12.60
2013,05,22,11,31,12.70
2013,05,22,11,32,12.80
2013,05,22,11,33,12.90
2013,05,22,11,34,13.00
2013,05,22,11,35,13.10
2013,05,22,11,36,13.10
2013,05,22,11,37,13.20
2013,05,22,11,38,13.20
2013,05,22,11,39,13.20
2013,05,22,11,40,13.30
2013,05,22,11,41,13.40
2013,05,22,11,42,13.50
2013,05,22,11,43,13.60
2013,05,22,11,44,13.70
2013,05,22,11,45,13.80
2013,05,22,11,46,13.90
2013,05,22,11,47,13.90
2013,05,22,11,48,13.90
2013,05,22,11,49,13.90
2013,05,22,11,50,13.90
2013,05,22,11,51,13.80
2013,05,22,11,52,13.80
2013,05,22,11,53,13.80
2013,05,22,11,54,13.80
2013,05,22,11,55,13.80
2013,05,22,11,56,13.80
2013,05,22,11,57,13.70
2013,05,22,11,58,13.70
2013,05,22,11,59,13.70
2013,05,22,12,00,13.70
2013,05,22,12,01,13.70
2013,05,22,12,02,13.60
2013,05,22,12,03,13.60
2013,05,22,12,04,13.50
2013,05,22,12,05,13.40
2013,05,22,12,06,13.40
2013,05,22,12,07,13.30
2013,05,22,12,08,13.30
2013,05,22,12,09,13.20
2013,05,22,12,10,13.20
2013,05,22,12,11,13.20
2013,05,22,12,12,13.20
2013,05,22,12,13,13.20
2013,05,22,12,14,13.10
2013,05,22,12,15,13.10
2013,05,22,12,16,13.10
2013,05,22,12,17,13.00
2013,05,22,12,18,13.00
2013,05,22,12,19,13.00
2013,05,22,12,20,13.00
2013,05,22,12,21,12.90
2013,05,22,12,22,12.90
2013,05,22,12,23,12.90
2013,05,22,12,24,12.90
2013,05,22,12,25,12.90
2013,05,22,12,26,13.00
2013,05,22,12,27,13.10
2013,05,22,12,28,13.20
2013,05,22,12,29,13.20
2013,05,22,12,30,13.30
2013,05,22,12,31,13.30
2013,05,22,12,32,13.40
2013,05,22,12,33,13.40
2013,05,22,12,34,13.40
2013,05,22,12,35,13.50
2013,05,22,12,36,13.60
2013,05,22,12,37,13.70
2013,05,22,12,38,13.80
2013,05,22,12,39,13.90
2013,05,22,12,40,13.90
2013,05,22,12,41,13.90
2013,05,22,12,42,14.00
2013,05,22,12,43,14.10
2013,05,22,12,44,14.20
2013,05,22,12,45,14.40
2013,05,22,12,46,14.50
2013,05,22,12,47,14.60
2013,05,22,12,48,14.60
2013,05,22,12,49,14.70
2013,05,22,12,50,14.70
2013,05,22,12,51,14.70
2013,05,22,12,52,14.70
2013,05,22,12,53,14.70
2013,05,22,12,54,14.70
2013,05,22,12,55,14.70
2013,05,22,12,56,14.60
2013,05,22,12,57,14.50
2013,05,22,12,58,14.40
2013,05,22,12,59,14.40
2013,05,22,13,00,14.30
2013,05,22,13,01,14.30
2013,05,22,13,02,14.30
2013,05,22,13,03,14.30
2013,05,22,13,04,14.30
2013,05,22,13,05,14.30
2013,05,22,13,06,14.30
2013,05,22,13,07,14.40
2013,05,22,13,08,14.40
2013,05,22,13,09,14.50
2013,05,22,13,10,14.60
2013,05,22,13,11,14.70
2013,05,22,13,12,14.70
2013,05,22,13,13,14.80
2013,05,22,13,14,14.90
2013,05,22,13,15,15.00
2013,05,22,13,16,15.00
2013,05,22,13,17,15.00
2013,05,22,13,18,15.00
2013,05,22,13,19,15.10
2013,05,22,13,20,15.20
2013,05,22,13,21,15.20
2013,05,22,13,22,15.10
2013,05,22,13,23,15.00
2013,05,22,13,24,15.00
2013,05,22,13,25,15.00
2013,05,22,13,26,15.00
2013,05,22,13,27,15.00
2013,05,22,13,28,15.00
2013,05,22,13,29,15.00
2013,05,22,13,30,15.00
2013,05,22,13,31,15.00
2013,05,22,13,32,15.00
2013,05,22,13,33,15.00
2013,05,22,13,34,15.00
2013,05,22,13,35,15.20
2013,05,22,13,36,15.30
2013,05,22,13,37,15.30
2013,05,22,13,38,15.40
2013,05,22,13,39,15.40
2013,05,22,13,40,15.40
2013,05,22,13,41,15.40
2013,05,22,13,42,15.30
2013,05,22,13,43,15.30
2013,05,22,13,44,15.40
2013,05,22,13,45,15.40
2013,05,22,13,46,15.50
2013,05,22,13,47,15.50
2013,05,22,13,48,15.40
2013,05,22,13,49,15.30
2013,05,22,13,50,15.40
2013,05,22,13,51,15.40
2013,05,22,13,52,15.50
2013,05,22,13,53,15.60
2013,05,22,13,54,15.60
2013,05,22,13,55,15.60
2013,05,22,13,56,15.60
2013,05,22,13,57,15.50
2013,05,22,13,58,15.40
2013,05,22,13,59,15.30
2013,05,22,14,00,15.30
2013,05,22,14,01,15.20
2013,05,22,14,02,15.30
2013,05,22,14,03,15.20
2013,05,22,14,04,15.20
2013,05,22,14,05,15.10
2013,05,22,14,06,15.10
2013,05,22,14,07,15.20
2013,05,22,14,08,15.20
2013,05,22,14,09,15.30
2013,05,22,14,10,15.40
2013,05,22,14,11,15.50
2013,05,22,14,12,15.60
2013,05,22,14,13,15.60
2013,05,22,14,14,15.60
2013,05,22,14,15,15.60
2013,05,22,14,16,15.60
2013,05,22,14,17,15.70
2013,05,22,14,18,15.70
2013,05,22,14,19,15.70
2013,05,22,14,20,15.60
2013,05,22,14,21,15.50
2013,05,22,14,22,15.40
2013,05,22,14,23,15.40
2013,05,22,14,24,15.40
2013,05,22,14,25,15.30
2013,05,22,14,26,15.30
2013,05,22,14,27,15.30
2013,05,22,14,28,15.40
2013,05,22,14,29,15.30
2013,05,22,14,30,15.30
2013,05,22,14,31,15.30
2013,05,22,14,32,15.30
2013,05,22,14,33,15.30
2013,05,22,14,34,15.30
2013,05,22,14,35,15.30
2013,05,22,14,36,15.30
2013,05,22,14,37,15.20
2013,05,22,14,38,15.20
2013,05,22,14,39,15.10
2013,05,22,14,40,15.00
2013,05,22,14,41,15.00
2013,05,22,14,42,15.00
2013,05,22,14,43,15.00
2013,05,22,14,44,15.10
2013,05,22,14,45,15.10
2013,05,22,14,46,15.10
2013,05,22,14,47,15.20
2013,05,22,14,48,15.30
2013,05,22,14,49,15.30
2013,05,22,14,50,15.30
2013,05,22,14,51,15.30
2013,05,22,14,52,15.20
2013,05,22,14,53,15.00
2013,05,22,14,54,15.00
2013,05,22,14,55,15.00
2013,05,22,14,56,14.90
2013,05,22,14,57,14.80
2013,05,22,14,58,14.70
2013,05,22,14,59,14.60
2013,05,22,15,00,14.50
2013,05,22,15,01,14.50
2013,05,22,15,02,14.60
2013,05,22,15,03,14.50
2013,05,22,15,04,14.40
2013,05,22,15,05,14.30
2013,05,22,15,06,14.30
2013,05,22,15,07,14.40
2013,05,22,15,08,14.30
2013,05,22,15,09,14.30
2013,05,22,15,10,14.30
2013,05,22,15,11,14.30
2013,05,22,15,12,14.30
2013,05,22,15,13,14.30
2013,05,22,15,14,14.30
2013,05,22,15,15,14.40
2013,05,22,15,16,14.40
2013,05,22,15,17,14.40
2013,05,22,15,18,14.40
2013,05,22,15,19,14.50
2013,05,22,15,20,14.60
2013,05,22,15,21,14.70
2013,05,22,15,22,14.70
2013,05,22,15,23,14.80
2013,05,22,15,24,14.80
2013,05,22,15,25,14.80
2013,05,22,15,26,14.80
2013,05,22,15,27,14.80
2013,05,22,15,28,14.70
2013,05,22,15,29,14.70
2013,05,22,15,30,14.70
2013,05,22,15,31,14.60
2013,05,22,15,32,14.60
2013,05,22,15,33,14.60
2013,05,22,15,34,14.60
2013,05,22,15,35,14.60
2013,05,22,15,36,14.60
2013,05,22,15,37,14.50
2013,05,22,15,38,14.50
2013,05,22,15,39,14.40
2013,05,22,15,40,14.30
2013,05,22,15,41,14.30
2013,05,22,15,42,14.20
2013,05,22,15,43,14.20
2013,05,22,15,44,14.20
2013,05,22,15,45,14.30
2013,05,22,15,46,14.30
2013,05,22,15,47,14.30
2013,05,22,15,48,14.30
2013,05,22,15,49,14.30
2013,05,22,15,50,14.30
2013,05,22,15,51,14.30
2013,05,22,15,52,14.40
2013,05,22,15,53,14.40
2013,05,22,15,54,14.40
2013,05,22,15,55,14.40
2013,05,22,15,56,14.40
2013,05,22,15,57,14.40
2013,05,22,15,58,14.40
2013,05,22,15,59,14.40
2013,05,22,16,00,14.40
2013,05,22,16,01,14.40
2013,05,22,16,02,14.40
2013,05,22,16,03,14.40
2013,05,22,16,04,14.40
2013,05,22,16,05,14.40
2013,05,22,16,06,14.40
2013,05,22,16,07,14.30
2013,05,22,16,08,14.30
2013,05,22,16,09,14.30
2013,05,22,16,10,14.30
2013,05,22,16,11,14.30
2013,05,22,16,12,14.30
2013,05,22,16,13,14.20
2013,05,22,16,14,14.20
2013,05,22,16,15,14.10
2013,05,22,16,16,14.10
2013,05,22,16,17,14.00
2013,05,22,16,18,14.00
2013,05,22,16,19,13.90
2013,05,22,16,20,13.90
2013,05,22,16,21,13.90
2013,05,22,16,22,13.80
2013,05,22,16,23,13.80
2013,05,22,16,24,13.80
2013,05,22,16,25,13.80
2013,05,22,16,26,13.70
2013,05,22,16,27,13.70
2013,05,22,16,28,13.70
2013,05,22,16,29,13.70
2013,05,22,16,30,13.70
2013,05,22,16,31,13.70
2013,05,22,16,32,13.70
2013,05,22,16,33,13.80
2013,05,22,16,34,13.80
2013,05,22,16,35,13.90
2013,05,22,16,36,13.90
2013,05,22,16,37,13.90
2013,05,22,16,38,13.90
2013,05,22,16,39,13.90
2013,05,22,16,40,13.90
2013,05,22,16,41,13.90
2013,05,22,16,42,13.90
2013,05,22,16,43,13.80
2013,05,22,16,44,13.80
2013,05,22,16,45,13.80
2013,05,22,16,46,13.80
2013,05,22,16,47,13.80
2013,05,22,16,48,13.80
2013,05,22,16,49,13.80
2013,05,22,16,50,13.80
2013,05,22,16,51,13.80
2013,05,22,16,52,13.90
2013,05,22,16,53,13.90
2013,05,22,16,54,14.00
2013,05,22,16,55,14.00
2013,05,22,16,56,14.00
2013,05,22,16,57,14.00
2013,05,22,16,58,13.90
2013,05,22,16,59,13.90
2013,05,22,17,00,13.90
2013,05,22,17,01,13.90
2013,05,22,17,02,14.00
2013,05,22,17,03,14.10
2013,05,22,17,04,14.10
2013,05,22,17,05,14.10
2013,05,22,17,06,14.10
2013,05,22,17,07,14.10
2013,05,22,17,08,14.20
2013,05,22,17,09,14.20
2013,05,22,17,10,14.20
2013,05,22,17,11,14.20
2013,05,22,17,12,14.30
2013,05,22,17,13,14.30
2013,05,22,17,14,14.40
2013,05,22,17,15,14.50
2013,05,22,17,16,14.60
2013,05,22,17,17,14.70
2013,05,22,17,18,14.70
2013,05,22,17,19,14.70
2013,05,22,17,20,14.70
2013,05,22,17,21,14.70
2013,05,22,17,22,14.80
2013,05,22,17,23,14.80
2013,05,22,17,24,14.90
2013,05,22,17,25,15.00
2013,05,22,17,26,15.00
2013,05,22,17,27,15.00
2013,05,22,17,28,15.00
2013,05,22,17,29,15.10
2013,05,22,17,30,15.20
2013,05,22,17,31,15.20
2013,05,22,17,32,15.20
2013,05,22,17,33,15.20
2013,05,22,17,34,15.20
2013,05,22,17,35,15.20
2013,05,22,17,36,15.20
2013,05,22,17,37,15.20
2013,05,22,17,38,15.20
2013,05,22,17,39,15.20
2013,05,22,17,40,15.20
2013,05,22,17,41,15.30
2013,05,22,17,42,15.30